Time,TemperatureF,DewpointF,PressureIn,WindDirection,WindDirectionDegrees,WindSpeedMPH,WindSpeedGustMPH,Humidity,HourlyPrecipIn,Conditions,Clouds,dailyrainin,SoftwareType,DateUTC
2013-04-28 00:00:00,50.6,35.5,27.82,South,178,3.0,8.0,56,0.00,,---,0.00,VWS V14.01,2013-04-28 05:00:00,
2013-04-28 00:05:00,51.1,35.5,27.82,SSE,155,5.0,5.0,55,0.00,,---,0.00,VWS V14.01,2013-04-28 05:05:00,
2013-04-28 00:10:00,51.5,35.9,27.82,South,176,4.0,5.0,55,0.00,,---,0.00,VWS V14.01,2013-04-28 05:10:00,
2013-04-28 00:15:00,51.5,36.3,27.82,South,185,1.0,7.0,56,0.00,,---,0.00,VWS V14.01,2013-04-28 05:15:00,
2013-04-28 00:20:00,51.4,36.2,27.82,South,191,2.0,3.0,56,0.00,,---,0.00,VWS V14.01,2013-04-28 05:20:00,
2013-04-28 00:26:00,51.5,36.3,27.82,SSW,208,7.0,7.0,56,0.00,,---,0.00,VWS V14.01,2013-04-28 05:26:00,
2013-04-28 00:31:00,51.3,36.6,27.81,SSW,192,2.0,6.0,57,0.00,,---,0.00,VWS V14.01,2013-04-28 05:31:00,
2013-04-28 00:36:00,51.2,36.5,27.81,South,175,2.0,7.0,57,0.00,,---,0.00,VWS V14.01,2013-04-28 05:36:00,
2013-04-28 00:41:00,51.0,36.8,27.81,South,169,3.0,6.0,58,0.00,,---,0.00,VWS V14.01,2013-04-28 05:41:00,
2013-04-28 00:46:00,50.8,36.6,27.81,South,184,3.0,3.0,58,0.00,,---,0.00,VWS V14.01,2013-04-28 05:46:00,
2013-04-28 00:52:00,50.5,36.7,27.81,South,190,4.0,6.0,59,0.00,,---,0.00,VWS V14.01,2013-04-28 05:52:00,
2013-04-28 00:57:00,50.5,36.7,27.81,SSE,150,5.0,5.0,59,0.00,,---,0.00,VWS V14.01,2013-04-28 05:57:00,
2013-04-28 01:02:00,50.6,36.8,27.81,SSE,157,1.0,9.0,59,0.00,,---,0.00,VWS V14.01,2013-04-28 06:02:00,
2013-04-28 01:07:00,50.7,36.9,27.81,SSE,165,3.0,6.0,59,0.00,,---,0.00,VWS V14.01,2013-04-28 06:07:00,
2013-04-28 01:12:00,50.6,36.8,27.81,SSE,167,3.0,9.0,59,0.00,,---,0.00,VWS V14.01,2013-04-28 06:12:00,
2013-04-28 01:17:00,50.6,36.8,27.81,SE,138,5.0,5.0,59,0.00,,---,0.00,VWS V14.01,2013-04-28 06:17:00,
2013-04-28 01:23:00,50.5,36.7,27.81,SSE,161,2.0,2.0,59,0.00,,---,0.00,VWS V14.01,2013-04-28 06:23:00,
2013-04-28 01:28:00,50.2,36.9,27.81,South,173,4.0,8.0,60,0.00,,---,0.00,VWS V14.01,2013-04-28 06:28:00,
2013-04-28 01:33:00,50.1,36.8,27.80,South,181,5.0,5.0,60,0.00,,---,0.00,VWS V14.01,2013-04-28 06:33:00,
2013-04-28 01:38:00,49.9,36.6,27.80,South,183,5.0,6.0,60,0.00,,---,0.00,VWS V14.01,2013-04-28 06:38:00,
2013-04-28 01:43:00,49.7,36.8,27.80,SSE,154,3.0,6.0,61,0.00,,---,0.00,VWS V14.01,2013-04-28 06:43:00,
2013-04-28 01:48:00,49.9,37.0,27.80,South,183,2.0,6.0,61,0.00,,---,0.00,VWS V14.01,2013-04-28 06:48:00,
2013-04-28 01:53:00,50.0,36.7,27.80,South,185,3.0,6.0,60,0.00,,---,0.00,VWS V14.01,2013-04-28 06:53:00,
2013-04-28 01:58:00,49.9,36.6,27.80,SSW,198,4.0,4.0,60,0.00,,---,0.00,VWS V14.01,2013-04-28 06:58:00,
2013-04-28 02:04:00,49.9,36.6,27.80,South,173,2.0,5.0,60,0.00,,---,0.00,VWS V14.01,2013-04-28 07:04:00,
2013-04-28 02:09:00,49.9,37.0,27.80,SSE,168,2.0,5.0,61,0.00,,---,0.00,VWS V14.01,2013-04-28 07:09:00,
2013-04-28 02:14:00,50.4,37.0,27.80,South,184,1.0,5.0,60,0.00,,---,0.00,VWS V14.01,2013-04-28 07:14:00,
2013-04-28 02:19:00,50.7,36.9,27.78,SSW,211,4.0,10.0,59,0.00,,---,0.00,VWS V14.01,2013-04-28 07:19:00,
2013-04-28 02:24:00,50.6,36.8,27.78,South,179,3.0,8.0,59,0.00,,---,0.00,VWS V14.01,2013-04-28 07:24:00,
2013-04-28 02:29:00,50.9,37.1,27.78,South,182,2.0,4.0,59,0.00,,---,0.00,VWS V14.01,2013-04-28 07:29:00,
2013-04-28 02:35:00,51.0,37.2,27.78,South,171,4.0,4.0,59,0.00,,---,0.00,VWS V14.01,2013-04-28 07:35:00,
2013-04-28 02:40:00,50.8,37.0,27.78,SSW,209,3.0,9.0,59,0.00,,---,0.00,VWS V14.01,2013-04-28 07:40:00,
2013-04-28 02:45:00,50.9,37.1,27.78,SSW,195,4.0,5.0,59,0.00,,---,0.00,VWS V14.01,2013-04-28 07:45:00,
2013-04-28 02:50:00,50.9,37.1,27.78,South,188,1.0,2.0,59,0.00,,---,0.00,VWS V14.01,2013-04-28 07:50:00,
2013-04-28 02:55:00,50.9,37.1,27.78,SSW,210,3.0,3.0,59,0.00,,---,0.00,VWS V14.01,2013-04-28 07:55:00,
2013-04-28 03:00:00,50.9,37.1,27.78,SSW,213,1.0,3.0,59,0.00,,---,0.00,VWS V14.01,2013-04-28 08:00:00,
2013-04-28 03:05:00,51.0,37.6,27.78,WSW,238,2.0,2.0,60,0.00,,---,0.00,VWS V14.01,2013-04-28 08:05:00,
2013-04-28 03:11:00,51.2,37.4,27.78,South,178,1.0,2.0,59,0.00,,---,0.00,VWS V14.01,2013-04-28 08:11:00,
2013-04-28 03:16:00,51.0,37.6,27.78,SSE,155,1.0,3.0,60,0.00,,---,0.00,VWS V14.01,2013-04-28 08:16:00,
2013-04-28 03:21:00,50.5,37.6,27.78,SSW,208,1.0,4.0,61,0.00,,---,0.00,VWS V14.01,2013-04-28 08:21:00,
2013-04-28 03:26:00,50.0,37.5,27.78,South,178,1.0,7.0,62,0.00,,---,0.00,VWS V14.01,2013-04-28 08:26:00,
2013-04-28 03:31:00,49.6,37.5,27.77,South,179,5.0,5.0,63,0.00,,---,0.00,VWS V14.01,2013-04-28 08:31:00,
2013-04-28 03:37:00,49.5,37.4,27.77,SSW,203,3.0,3.0,63,0.00,,---,0.00,VWS V14.01,2013-04-28 08:37:00,
2013-04-28 03:42:00,49.4,37.8,27.77,SSW,210,7.0,7.0,64,0.00,,---,0.00,VWS V14.01,2013-04-28 08:42:00,
2013-04-28 03:47:00,49.7,38.0,27.77,SSW,200,2.0,4.0,64,0.00,,---,0.00,VWS V14.01,2013-04-28 08:47:00,
2013-04-28 03:52:00,50.1,38.4,27.77,SSE,161,1.0,5.0,64,0.00,,---,0.00,VWS V14.01,2013-04-28 08:52:00,
2013-04-28 03:57:00,50.4,38.7,27.77,SSW,200,7.0,7.0,64,0.00,,---,0.00,VWS V14.01,2013-04-28 08:57:00,
2013-04-28 04:03:00,50.7,39.4,27.78,SSW,212,1.0,4.0,65,0.00,,---,0.00,VWS V14.01,2013-04-28 09:03:00,
2013-04-28 04:08:00,51.1,39.4,27.78,SW,217,2.0,2.0,64,0.00,,---,0.00,VWS V14.01,2013-04-28 09:08:00,
2013-04-28 04:13:00,50.6,39.7,27.78,WSW,248,1.0,6.0,66,0.00,,---,0.00,VWS V14.01,2013-04-28 09:13:00,
2013-04-28 04:18:00,49.6,40.2,27.77,South,182,1.0,2.0,70,0.00,,---,0.00,VWS V14.01,2013-04-28 09:18:00,
2013-04-28 04:23:00,48.7,39.7,27.77,South,190,4.0,4.0,71,0.00,,---,0.00,VWS V14.01,2013-04-28 09:23:00,
2013-04-28 04:28:00,48.8,39.8,27.77,South,179,5.0,9.0,71,0.00,,---,0.00,VWS V14.01,2013-04-28 09:28:00,
2013-04-28 04:33:00,49.4,40.0,27.77,South,179,3.0,3.0,70,0.00,,---,0.00,VWS V14.01,2013-04-28 09:33:00,
2013-04-28 04:39:00,49.4,40.0,27.77,South,186,2.0,5.0,70,0.00,,---,0.00,VWS V14.01,2013-04-28 09:39:00,
2013-04-28 04:44:00,49.5,40.1,27.77,SSW,193,7.0,7.0,70,0.00,,---,0.00,VWS V14.01,2013-04-28 09:44:00,
2013-04-28 04:49:00,49.6,39.9,27.77,South,169,2.0,6.0,69,0.00,,---,0.00,VWS V14.01,2013-04-28 09:49:00,
2013-04-28 04:54:00,49.6,40.2,27.77,South,188,7.0,7.0,70,0.00,,---,0.00,VWS V14.01,2013-04-28 09:54:00,
2013-04-28 04:59:00,49.9,40.9,27.77,South,175,2.0,8.0,71,0.00,,---,0.00,VWS V14.01,2013-04-28 09:59:00,
2013-04-28 05:04:00,50.1,40.7,27.75,SSW,210,5.0,5.0,70,0.00,,---,0.00,VWS V14.01,2013-04-28 10:04:00,
2013-04-28 05:09:00,50.6,41.2,27.75,South,181,1.0,8.0,70,0.00,,---,0.00,VWS V14.01,2013-04-28 10:09:00,
2013-04-28 05:15:00,50.5,40.7,27.75,South,182,2.0,3.0,69,0.00,,---,0.00,VWS V14.01,2013-04-28 10:15:00,
2013-04-28 05:20:00,50.1,40.3,27.75,WSW,239,7.0,8.0,69,0.00,,---,0.00,VWS V14.01,2013-04-28 10:20:00,
2013-04-28 05:25:00,49.9,40.5,27.75,South,181,4.0,5.0,70,0.00,,---,0.00,VWS V14.01,2013-04-28 10:25:00,
2013-04-28 05:30:00,49.7,40.7,27.75,SSW,209,7.0,7.0,71,0.00,,---,0.00,VWS V14.01,2013-04-28 10:30:00,
2013-04-28 05:35:00,49.6,40.6,27.75,WSW,243,5.0,7.0,71,0.00,,---,0.00,VWS V14.01,2013-04-28 10:35:00,
2013-04-28 05:40:00,49.2,40.6,27.75,SW,217,4.0,12.0,72,0.00,,---,0.00,VWS V14.01,2013-04-28 10:40:00,
2013-04-28 05:45:00,48.8,40.5,27.76,SSW,195,2.0,6.0,73,0.00,,---,0.00,VWS V14.01,2013-04-28 10:45:00,
2013-04-28 05:50:00,48.6,40.3,27.76,South,170,1.0,5.0,73,0.00,,---,0.00,VWS V14.01,2013-04-28 10:50:00,
2013-04-28 05:56:00,48.6,40.3,27.76,South,178,1.0,3.0,73,0.00,,---,0.00,VWS V14.01,2013-04-28 10:56:00,
2013-04-28 06:01:00,48.3,40.1,27.75,South,190,1.0,1.0,73,0.00,,---,0.00,VWS V14.01,2013-04-28 11:01:00,
2013-04-28 06:06:00,48.2,40.7,27.75,SSW,195,4.0,5.0,75,0.00,,---,0.00,VWS V14.01,2013-04-28 11:06:00,
2013-04-28 06:11:00,48.2,40.7,27.75,SSW,193,4.0,6.0,75,0.00,,---,0.00,VWS V14.01,2013-04-28 11:11:00,
2013-04-28 06:16:00,48.2,41.7,27.75,South,181,4.0,6.0,78,0.00,,---,0.00,VWS V14.01,2013-04-28 11:16:00,
2013-04-28 06:21:00,48.0,40.5,27.75,SSW,202,0.0,5.0,75,0.00,,---,0.00,VWS V14.01,2013-04-28 11:21:00,
2013-04-28 06:26:00,47.8,40.6,27.75,South,184,3.0,4.0,76,0.00,,---,0.00,VWS V14.01,2013-04-28 11:26:00,
2013-04-28 06:32:00,47.8,41.0,27.75,South,180,2.0,7.0,77,0.00,,---,0.00,VWS V14.01,2013-04-28 11:32:00,
2013-04-28 06:37:00,47.9,41.0,27.75,SSE,147,3.0,5.0,77,0.00,,---,0.00,VWS V14.01,2013-04-28 11:37:00,
2013-04-28 06:42:00,48.3,41.4,27.75,South,185,2.0,6.0,77,0.00,,---,0.00,VWS V14.01,2013-04-28 11:42:00,
2013-04-28 06:47:00,48.4,41.5,27.74,South,182,4.0,5.0,77,0.00,,---,0.00,VWS V14.01,2013-04-28 11:47:00,
2013-04-28 06:52:00,48.6,41.7,27.74,South,175,7.0,7.0,77,0.00,,---,0.00,VWS V14.01,2013-04-28 11:52:00,
2013-04-28 06:58:00,48.6,41.7,27.74,South,186,5.0,6.0,77,0.00,,---,0.00,VWS V14.01,2013-04-28 11:58:00,
2013-04-28 07:03:00,48.7,42.2,27.74,South,175,4.0,10.0,78,0.00,,---,0.00,VWS V14.01,2013-04-28 12:03:00,
2013-04-28 07:08:00,48.8,41.9,27.74,South,184,4.0,5.0,77,0.00,,---,0.00,VWS V14.01,2013-04-28 12:08:00,
2013-04-28 07:13:00,49.0,42.5,27.74,SSW,208,5.0,10.0,78,0.00,,---,0.00,VWS V14.01,2013-04-28 12:13:00,
2013-04-28 07:18:00,49.6,42.4,27.74,South,178,7.0,8.0,76,0.00,,---,0.00,VWS V14.01,2013-04-28 12:18:00,
2013-04-28 07:23:00,49.9,42.3,27.74,South,180,4.0,4.0,75,0.00,,---,0.00,VWS V14.01,2013-04-28 12:23:00,
2013-04-28 07:28:00,50.1,42.5,27.74,SSW,205,8.0,8.0,75,0.00,,---,0.00,VWS V14.01,2013-04-28 12:28:00,
2013-04-28 07:34:00,50.0,42.4,27.74,South,177,2.0,3.0,75,0.00,,---,0.00,VWS V14.01,2013-04-28 12:34:00,
2013-04-28 07:38:00,49.8,42.2,27.74,SSE,160,4.0,6.0,75,0.00,,---,0.00,VWS V14.01,2013-04-28 12:38:00,
2013-04-28 07:44:00,49.7,42.5,27.74,SSW,205,3.0,4.0,76,0.00,,---,0.00,VWS V14.01,2013-04-28 12:44:00,
2013-04-28 07:49:00,49.6,42.4,27.74,SSW,199,3.0,8.0,76,0.00,,---,0.00,VWS V14.01,2013-04-28 12:49:00,
2013-04-28 07:54:00,49.4,42.2,27.74,South,188,2.0,3.0,76,0.00,,---,0.00,VWS V14.01,2013-04-28 12:54:00,
2013-04-28 07:59:00,49.3,42.4,27.74,SSW,198,2.0,8.0,77,0.00,,---,0.00,VWS V14.01,2013-04-28 12:59:00,
2013-04-28 08:04:00,49.2,42.0,27.74,SSW,193,2.0,3.0,76,0.00,,---,0.00,VWS V14.01,2013-04-28 13:04:00,
2013-04-28 08:09:00,49.2,42.3,27.74,South,191,3.0,3.0,77,0.00,,---,0.00,VWS V14.01,2013-04-28 13:09:00,
2013-04-28 08:15:00,49.7,42.5,27.74,SSW,194,4.0,6.0,76,0.00,,---,0.00,VWS V14.01,2013-04-28 13:15:00,
2013-04-28 08:20:00,50.3,42.7,27.74,SSE,149,8.0,8.0,75,0.00,,---,0.00,VWS V14.01,2013-04-28 13:20:00,
2013-04-28 08:25:00,50.4,42.8,27.74,SSW,205,7.0,7.0,75,0.00,,---,0.00,VWS V14.01,2013-04-28 13:25:00,
2013-04-28 08:30:00,50.6,43.0,27.72,SW,219,7.0,13.0,75,0.00,,---,0.00,VWS V14.01,2013-04-28 13:30:00,
2013-04-28 08:35:00,50.6,42.3,27.72,SE,146,9.0,9.0,73,0.00,,---,0.00,VWS V14.01,2013-04-28 13:35:00,
2013-04-28 08:40:00,50.8,42.5,27.72,SSW,211,10.0,10.0,73,0.00,,---,0.00,VWS V14.01,2013-04-28 13:40:00,
2013-04-28 08:45:00,50.9,42.6,27.72,SW,217,13.0,13.0,73,0.00,,---,0.00,VWS V14.01,2013-04-28 13:45:00,
2013-04-28 08:50:00,51.0,42.3,27.72,South,182,4.0,7.0,72,0.00,,---,0.00,VWS V14.01,2013-04-28 13:50:00,
2013-04-28 08:56:00,50.8,42.1,27.72,SSW,209,2.0,5.0,72,0.00,,---,0.00,VWS V14.01,2013-04-28 13:56:00,
2013-04-28 09:01:00,50.9,42.2,27.72,SW,216,6.0,6.0,72,0.00,,---,0.00,VWS V14.01,2013-04-28 14:01:00,
2013-04-28 09:06:00,50.7,42.0,27.72,SSW,204,5.0,8.0,72,0.00,,---,0.00,VWS V14.01,2013-04-28 14:06:00,
2013-04-28 09:11:00,50.5,42.2,27.72,SW,219,6.0,8.0,73,0.00,,---,0.00,VWS V14.01,2013-04-28 14:11:00,
2013-04-28 09:16:00,50.6,41.9,27.74,South,172,5.0,5.0,72,0.00,,---,0.00,VWS V14.01,2013-04-28 14:16:00,
2013-04-28 09:22:00,50.5,42.2,27.74,SSE,167,6.0,6.0,73,0.00,,---,0.00,VWS V14.01,2013-04-28 14:22:00,
2013-04-28 09:27:00,50.5,42.2,27.74,South,181,3.0,8.0,73,0.00,,---,0.00,VWS V14.01,2013-04-28 14:27:00,
2013-04-28 09:32:00,50.6,42.3,27.74,SW,220,5.0,10.0,73,0.00,,---,0.00,VWS V14.01,2013-04-28 14:32:00,
2013-04-28 09:37:00,50.9,42.2,27.74,SSW,200,6.0,14.0,72,0.00,,---,0.00,VWS V14.01,2013-04-28 14:37:00,
2013-04-28 09:42:00,51.1,42.4,27.74,SSW,192,3.0,4.0,72,0.00,,---,0.00,VWS V14.01,2013-04-28 14:42:00,
2013-04-28 09:47:00,51.0,42.7,27.74,South,180,3.0,7.0,73,0.00,,---,0.00,VWS V14.01,2013-04-28 14:47:00,
2013-04-28 09:53:00,51.4,42.7,27.74,South,173,2.0,4.0,72,0.00,,---,0.00,VWS V14.01,2013-04-28 14:53:00,
2013-04-28 09:58:00,52.1,43.0,27.74,South,190,2.0,5.0,71,0.00,,---,0.00,VWS V14.01,2013-04-28 14:58:00,
2013-04-28 10:03:00,52.6,43.1,27.73,South,173,3.0,6.0,70,0.00,,---,0.00,VWS V14.01,2013-04-28 15:03:00,
2013-04-28 10:08:00,52.9,43.0,27.73,SSW,196,5.0,11.0,69,0.00,,---,0.00,VWS V14.01,2013-04-28 15:08:00,
2013-04-28 10:13:00,52.7,42.8,27.73,South,179,6.0,6.0,69,0.00,,---,0.00,VWS V14.01,2013-04-28 15:13:00,
2013-04-28 10:18:00,52.6,43.1,27.72,South,184,4.0,6.0,70,0.00,,---,0.00,VWS V14.01,2013-04-28 15:18:00,
2013-04-28 10:23:00,52.5,42.6,27.72,SSE,166,2.0,5.0,69,0.00,,---,0.00,VWS V14.01,2013-04-28 15:23:00,
2013-04-28 10:28:00,52.6,43.1,27.72,South,174,1.0,7.0,70,0.00,,---,0.00,VWS V14.01,2013-04-28 15:28:00,
2013-04-28 10:34:00,52.8,42.9,27.72,South,181,4.0,6.0,69,0.00,,---,0.00,VWS V14.01,2013-04-28 15:34:00,
2013-04-28 10:39:00,53.0,42.7,27.72,South,190,4.0,5.0,68,0.00,,---,0.00,VWS V14.01,2013-04-28 15:39:00,
2013-04-28 10:44:00,53.2,42.9,27.72,SSE,165,4.0,4.0,68,0.00,,---,0.00,VWS V14.01,2013-04-28 15:44:00,
2013-04-28 10:49:00,53.5,42.8,27.72,SSW,202,4.0,11.0,67,0.00,,---,0.00,VWS V14.01,2013-04-28 15:49:00,
2013-04-28 10:54:00,53.7,43.0,27.72,South,173,2.0,7.0,67,0.00,,---,0.00,VWS V14.01,2013-04-28 15:54:00,
2013-04-28 11:00:00,53.9,42.8,27.72,SSW,212,3.0,3.0,66,0.00,,---,0.00,VWS V14.01,2013-04-28 16:00:00,
2013-04-28 11:05:00,54.1,42.6,27.72,SSW,202,3.0,4.0,65,0.00,,---,0.00,VWS V14.01,2013-04-28 16:05:00,
2013-04-28 11:10:00,54.2,42.7,27.72,South,182,7.0,7.0,65,0.00,,---,0.00,VWS V14.01,2013-04-28 16:10:00,
2013-04-28 11:15:00,54.2,42.7,27.72,South,180,3.0,6.0,65,0.00,,---,0.00,VWS V14.01,2013-04-28 16:15:00,
2013-04-28 11:20:00,54.2,42.3,27.72,SSW,207,3.0,4.0,64,0.00,,---,0.00,VWS V14.01,2013-04-28 16:20:00,
2013-04-28 11:25:00,54.2,42.3,27.72,South,171,3.0,5.0,64,0.00,,---,0.00,VWS V14.01,2013-04-28 16:25:00,
2013-04-28 11:31:00,54.5,43.0,27.71,SSE,160,4.0,6.0,65,0.00,,---,0.00,VWS V14.01,2013-04-28 16:31:00,
2013-04-28 11:36:00,55.3,43.3,27.71,SSE,159,1.0,5.0,64,0.00,,---,0.00,VWS V14.01,2013-04-28 16:36:00,
2013-04-28 12:03:00,58.0,43.3,27.69,SSE,155,8.0,9.0,58,0.00,,---,0.00,VWS V14.01,2013-04-28 17:03:00,
2013-04-28 12:08:00,58.8,43.2,27.69,South,180,7.0,7.0,56,0.00,,---,0.00,VWS V14.01,2013-04-28 17:08:00,
2013-04-28 12:13:00,59.0,43.3,27.69,SSE,161,12.0,14.0,56,0.00,,---,0.00,VWS V14.01,2013-04-28 17:13:00,
2013-04-28 12:18:00,58.5,42.9,27.69,SSE,159,2.0,4.0,56,0.00,,---,0.00,VWS V14.01,2013-04-28 17:18:00,
2013-04-28 12:23:00,58.3,43.2,27.69,SSE,168,5.0,5.0,57,0.00,,---,0.00,VWS V14.01,2013-04-28 17:23:00,
2013-04-28 12:29:00,57.6,43.4,27.69,South,171,5.0,6.0,59,0.00,,---,0.00,VWS V14.01,2013-04-28 17:29:00,
2013-04-28 12:34:00,58.1,43.4,27.69,South,178,4.0,5.0,58,0.00,,---,0.00,VWS V14.01,2013-04-28 17:34:00,
2013-04-28 12:39:00,58.5,44.2,27.69,SW,219,10.0,10.0,59,0.00,,---,0.00,VWS V14.01,2013-04-28 17:39:00,
2013-04-28 12:44:00,58.2,43.5,27.69,SSW,192,6.0,7.0,58,0.00,,---,0.00,VWS V14.01,2013-04-28 17:44:00,
2013-04-28 12:49:00,57.2,43.9,27.69,South,178,3.0,10.0,61,0.00,,---,0.00,VWS V14.01,2013-04-28 17:49:00,
2013-04-28 12:54:00,57.0,43.7,27.69,South,176,5.0,5.0,61,0.00,,---,0.00,VWS V14.01,2013-04-28 17:54:00,
2013-04-28 13:00:00,56.5,44.1,27.69,SSW,208,6.0,13.0,63,0.00,,---,0.00,VWS V14.01,2013-04-28 18:00:00,
2013-04-28 13:05:00,56.2,43.8,27.69,SSW,210,2.0,7.0,63,0.00,,---,0.00,VWS V14.01,2013-04-28 18:05:00,
2013-04-28 13:10:00,55.9,43.9,27.69,SSE,161,5.0,7.0,64,0.00,,---,0.00,VWS V14.01,2013-04-28 18:10:00,
2013-04-28 13:15:00,55.8,43.8,27.68,South,185,3.0,10.0,64,0.00,,---,0.00,VWS V14.01,2013-04-28 18:15:00,
2013-04-28 13:20:00,56.0,44.0,27.68,South,189,7.0,8.0,64,0.00,,---,0.00,VWS V14.01,2013-04-28 18:20:00,
2013-04-28 13:25:00,57.0,44.5,27.68,South,182,8.0,8.0,63,0.00,,---,0.00,VWS V14.01,2013-04-28 18:25:00,
2013-04-28 13:30:00,57.0,44.1,27.68,South,190,4.0,7.0,62,0.00,,---,0.00,VWS V14.01,2013-04-28 18:30:00,
2013-04-28 13:35:00,56.4,44.0,27.68,SSE,149,8.0,8.0,63,0.00,,---,0.00,VWS V14.01,2013-04-28 18:35:00,
2013-04-28 13:40:00,55.9,43.9,27.68,SE,141,2.0,9.0,64,0.00,,---,0.00,VWS V14.01,2013-04-28 18:40:00,
2013-04-28 13:45:00,55.6,44.0,27.69,South,180,8.0,8.0,65,0.00,,---,0.00,VWS V14.01,2013-04-28 18:45:00,
2013-04-28 13:51:00,55.7,44.1,27.69,South,184,5.0,5.0,65,0.00,,---,0.00,VWS V14.01,2013-04-28 18:51:00,
2013-04-28 13:56:00,55.9,43.9,27.69,South,190,1.0,5.0,64,0.00,,---,0.00,VWS V14.01,2013-04-28 18:56:00,
2013-04-28 14:01:00,56.2,44.2,27.69,SSW,195,4.0,8.0,64,0.00,,---,0.00,VWS V14.01,2013-04-28 19:01:00,
2013-04-28 14:06:00,56.4,44.0,27.69,SSE,161,11.0,13.0,63,0.00,,---,0.00,VWS V14.01,2013-04-28 19:06:00,
2013-04-28 14:11:00,56.6,44.2,27.69,South,185,10.0,10.0,63,0.00,,---,0.00,VWS V14.01,2013-04-28 19:11:00,
2013-04-28 14:17:00,56.8,44.3,27.68,South,177,6.0,9.0,63,0.00,,---,0.00,VWS V14.01,2013-04-28 19:17:00,
2013-04-28 14:22:00,56.5,44.1,27.68,SSE,151,4.0,8.0,63,0.00,,---,0.00,VWS V14.01,2013-04-28 19:22:00,
2013-04-28 14:27:00,56.0,44.0,27.68,SSW,192,3.0,10.0,64,0.00,,---,0.00,VWS V14.01,2013-04-28 19:27:00,
2013-04-28 14:32:00,55.9,44.3,27.68,South,187,3.0,9.0,65,0.00,,---,0.00,VWS V14.01,2013-04-28 19:32:00,
2013-04-28 14:37:00,55.9,44.3,27.68,South,184,4.0,8.0,65,0.00,,---,0.00,VWS V14.01,2013-04-28 19:37:00,
2013-04-28 14:43:00,55.9,44.3,27.68,SE,135,4.0,4.0,65,0.00,,---,0.00,VWS V14.01,2013-04-28 19:43:00,
2013-04-28 14:48:00,55.9,44.3,27.68,South,182,7.0,7.0,65,0.00,,---,0.00,VWS V14.01,2013-04-28 19:48:00,
2013-04-28 14:53:00,55.8,44.2,27.68,SSE,153,5.0,9.0,65,0.00,,---,0.00,VWS V14.01,2013-04-28 19:53:00,
2013-04-28 14:58:00,55.7,44.1,27.68,South,176,3.0,10.0,65,0.00,,---,0.00,VWS V14.01,2013-04-28 19:58:00,
2013-04-28 15:03:00,55.9,44.3,27.69,South,190,4.0,4.0,65,0.00,,---,0.00,VWS V14.01,2013-04-28 20:03:00,
2013-04-28 15:08:00,56.2,44.2,27.69,SSE,164,5.0,8.0,64,0.00,,---,0.00,VWS V14.01,2013-04-28 20:08:00,
2013-04-28 15:13:00,56.5,44.1,27.69,SSW,196,3.0,3.0,63,0.00,,---,0.00,VWS V14.01,2013-04-28 20:13:00,
2013-04-28 15:19:00,56.8,44.3,27.69,SSE,167,6.0,13.0,63,0.00,,---,0.00,VWS V14.01,2013-04-28 20:19:00,
2013-04-28 15:24:00,57.0,44.1,27.69,SSW,200,2.0,7.0,62,0.00,,---,0.00,VWS V14.01,2013-04-28 20:24:00,
2013-04-28 15:29:00,57.2,44.3,27.69,South,171,8.0,8.0,62,0.00,,---,0.00,VWS V14.01,2013-04-28 20:29:00,
2013-04-28 15:34:00,57.3,44.0,27.68,South,185,7.0,8.0,61,0.00,,---,0.00,VWS V14.01,2013-04-28 20:34:00,
2013-04-28 15:39:00,57.1,44.2,27.68,South,178,5.0,7.0,62,0.00,,---,0.00,VWS V14.01,2013-04-28 20:39:00,
2013-04-28 15:45:00,56.8,43.9,27.68,South,169,4.0,9.0,62,0.00,,---,0.00,VWS V14.01,2013-04-28 20:45:00,
2013-04-28 15:50:00,56.9,44.0,27.68,South,170,3.0,4.0,62,0.00,,---,0.00,VWS V14.01,2013-04-28 20:50:00,
2013-04-28 15:55:00,56.7,43.8,27.68,South,181,2.0,10.0,62,0.00,,---,0.00,VWS V14.01,2013-04-28 20:55:00,
2013-04-28 16:00:00,56.4,44.0,27.68,SSE,159,3.0,5.0,63,0.00,,---,0.00,VWS V14.01,2013-04-28 21:00:00,
2013-04-28 16:05:00,56.1,43.7,27.68,South,173,1.0,10.0,63,0.00,,---,0.00,VWS V14.01,2013-04-28 21:05:00,
2013-04-28 16:10:00,55.9,43.9,27.68,South,180,4.0,7.0,64,0.00,,---,0.00,VWS V14.01,2013-04-28 21:10:00,
2013-04-28 16:16:00,55.5,44.3,27.67,South,187,1.0,1.0,66,0.00,,---,0.00,VWS V14.01,2013-04-28 21:16:00,
2013-04-28 16:21:00,55.2,43.7,27.67,South,173,8.0,8.0,65,0.00,,---,0.00,VWS V14.01,2013-04-28 21:21:00,
2013-04-28 16:26:00,55.1,44.0,27.67,SSW,200,0.0,5.0,66,0.00,,---,0.00,VWS V14.01,2013-04-28 21:26:00,
2013-04-28 16:31:00,55.1,43.6,27.67,SSW,198,2.0,9.0,65,0.00,,---,0.00,VWS V14.01,2013-04-28 21:31:00,
2013-04-28 16:36:00,55.4,44.2,27.67,SE,146,0.0,3.0,66,0.00,,---,0.00,VWS V14.01,2013-04-28 21:36:00,
2013-04-28 16:42:00,55.7,44.1,27.67,South,171,2.0,2.0,65,0.00,,---,0.00,VWS V14.01,2013-04-28 21:42:00,
2013-04-28 16:47:00,55.7,44.1,27.66,SSE,166,5.0,8.0,65,0.00,,---,0.00,VWS V14.01,2013-04-28 21:47:00,
2013-04-28 16:52:00,55.7,43.7,27.66,South,173,2.0,7.0,64,0.00,,---,0.00,VWS V14.01,2013-04-28 21:52:00,
2013-04-28 16:57:00,55.7,43.7,27.66,South,173,0.0,0.0,64,0.00,,---,0.00,VWS V14.01,2013-04-28 21:57:00,
2013-04-28 17:02:00,55.6,44.0,27.66,SSE,167,2.0,7.0,65,0.00,,---,0.00,VWS V14.01,2013-04-28 22:02:00,
2013-04-28 17:08:00,55.6,43.6,27.66,SSE,150,0.0,3.0,64,0.00,,---,0.00,VWS V14.01,2013-04-28 22:08:00,
2013-04-28 17:13:00,55.5,43.5,27.66,SSE,161,2.0,2.0,64,0.00,,---,0.00,VWS V14.01,2013-04-28 22:13:00,
2013-04-28 17:18:00,55.5,43.5,27.66,South,183,3.0,6.0,64,0.00,,---,0.00,VWS V14.01,2013-04-28 22:18:00,
2013-04-28 17:23:00,55.4,43.8,27.66,South,169,0.0,2.0,65,0.00,,---,0.00,VWS V14.01,2013-04-28 22:23:00,
2013-04-28 17:28:00,55.3,44.2,27.66,South,169,0.0,3.0,66,0.00,,---,0.00,VWS V14.01,2013-04-28 22:28:00,
2013-04-28 17:34:00,55.2,44.0,27.67,South,176,2.0,2.0,66,0.00,,---,0.00,VWS V14.01,2013-04-28 22:34:00,
2013-04-28 17:39:00,55.0,44.3,27.67,South,174,0.0,1.0,67,0.00,,---,0.00,VWS V14.01,2013-04-28 22:39:00,
2013-04-28 17:44:00,54.8,44.8,27.67,SSW,205,0.0,4.0,69,0.00,,---,0.00,VWS V14.01,2013-04-28 22:44:00,
2013-04-28 17:49:00,54.3,44.7,27.67,South,177,0.0,1.0,70,0.00,,---,0.00,VWS V14.01,2013-04-28 22:49:00,
2013-04-28 17:54:00,54.0,44.5,27.67,South,175,2.0,3.0,70,0.00,,---,0.00,VWS V14.01,2013-04-28 22:54:00,
2013-04-28 17:59:00,53.9,44.7,27.67,South,175,0.0,1.0,71,0.00,,---,0.00,VWS V14.01,2013-04-28 22:59:00,
2013-04-28 18:05:00,53.4,45.3,27.67,South,182,0.0,4.0,74,0.00,,---,0.00,VWS V14.01,2013-04-28 23:05:00,
2013-04-28 18:10:00,52.7,46.4,27.67,South,187,0.0,2.0,79,0.00,,---,0.00,VWS V14.01,2013-04-28 23:10:00,
2013-04-28 18:15:00,52.0,46.4,27.67,South,187,0.0,0.0,81,0.00,,---,0.00,VWS V14.01,2013-04-28 23:15:00,
2013-04-28 18:20:00,51.6,46.9,27.67,South,187,0.0,1.0,84,0.00,,---,0.00,VWS V14.01,2013-04-28 23:20:00,
2013-04-28 18:25:00,51.4,46.7,27.67,South,187,0.0,0.0,84,0.00,,---,0.00,VWS V14.01,2013-04-28 23:25:00,
2013-04-28 18:31:00,50.9,46.6,27.67,South,187,0.0,0.0,85,0.00,,---,0.00,VWS V14.01,2013-04-28 23:31:00,
2013-04-28 18:36:00,50.4,46.1,27.67,South,187,0.0,0.0,85,0.00,,---,0.00,VWS V14.01,2013-04-28 23:36:00,
2013-04-28 18:41:00,50.0,45.7,27.67,South,180,0.0,0.0,85,0.00,,---,0.00,VWS V14.01,2013-04-28 23:41:00,
2013-04-28 18:46:00,49.7,45.4,27.67,South,181,0.0,1.0,85,0.00,,---,0.00,VWS V14.01,2013-04-28 23:46:00,
2013-04-28 18:51:00,49.6,45.6,27.67,South,181,0.0,0.0,86,0.00,,---,0.00,VWS V14.01,2013-04-28 23:51:00,
2013-04-28 18:56:00,49.4,45.7,27.67,South,181,0.0,0.0,87,0.00,,---,0.00,VWS V14.01,2013-04-28 23:56:00,
2013-04-28 19:01:00,49.3,45.6,27.67,South,182,0.0,2.0,87,0.00,,---,0.00,VWS V14.01,2013-04-29 00:01:00,
2013-04-28 19:06:00,49.2,45.8,27.67,South,182,0.0,0.0,88,0.00,,---,0.00,VWS V14.01,2013-04-29 00:06:00,
2013-04-28 19:12:00,49.2,45.8,27.67,South,181,0.0,0.0,88,0.00,,---,0.00,VWS V14.01,2013-04-29 00:12:00,
2013-04-28 19:17:00,49.0,45.6,27.66,South,182,0.0,0.0,88,0.00,,---,0.00,VWS V14.01,2013-04-29 00:17:00,
2013-04-28 19:22:00,49.0,45.6,27.66,South,182,0.0,0.0,88,0.00,,---,0.00,VWS V14.01,2013-04-29 00:22:00,
2013-04-28 19:27:00,49.2,45.8,27.66,South,182,1.0,2.0,88,0.00,,---,0.00,VWS V14.01,2013-04-29 00:27:00,
2013-04-28 19:32:00,49.6,46.2,27.67,South,182,0.0,0.0,88,0.00,,---,0.00,VWS V14.01,2013-04-29 00:32:00,
2013-04-28 19:37:00,49.8,46.1,27.67,WNW,300,2.0,3.0,87,0.00,,---,0.00,VWS V14.01,2013-04-29 00:37:00,
2013-04-28 19:43:00,49.8,46.1,27.67,WNW,298,0.0,2.0,87,0.00,,---,0.00,VWS V14.01,2013-04-29 00:43:00,
2013-04-28 19:48:00,49.7,46.3,27.68,WNW,300,2.0,3.0,88,0.00,,---,0.00,VWS V14.01,2013-04-29 00:48:00,
2013-04-28 19:53:00,49.6,46.2,27.68,WNW,299,2.0,3.0,88,0.00,,---,0.00,VWS V14.01,2013-04-29 00:53:00,
2013-04-28 19:58:00,49.2,46.1,27.68,WNW,299,1.0,1.0,89,0.00,,---,0.00,VWS V14.01,2013-04-29 00:58:00,
2013-04-28 20:03:00,48.8,45.7,27.68,WNW,299,0.0,0.0,89,0.00,,---,0.00,VWS V14.01,2013-04-29 01:03:00,
2013-04-28 20:09:00,48.6,45.8,27.68,WNW,299,0.0,0.0,90,0.00,,---,0.00,VWS V14.01,2013-04-29 01:09:00,
2013-04-28 20:14:00,48.4,45.9,27.68,WNW,299,0.0,0.0,91,0.00,,---,0.00,VWS V14.01,2013-04-29 01:14:00,
2013-04-28 20:19:00,48.1,45.6,27.68,WNW,299,0.0,0.0,91,0.00,,---,0.00,VWS V14.01,2013-04-29 01:19:00,
2013-04-28 20:24:00,47.8,45.3,27.68,WNW,299,0.0,0.0,91,0.00,,---,0.00,VWS V14.01,2013-04-29 01:24:00,
2013-04-28 20:29:00,47.6,45.1,27.68,WNW,299,0.0,0.0,91,0.00,,---,0.00,VWS V14.01,2013-04-29 01:29:00,
2013-04-28 20:35:00,46.9,44.4,27.69,WNW,299,0.0,0.0,91,0.00,,---,0.00,VWS V14.01,2013-04-29 01:35:00,
2013-04-28 20:40:00,46.4,44.2,27.69,WNW,299,0.0,0.0,92,0.00,,---,0.00,VWS V14.01,2013-04-29 01:40:00,
2013-04-28 20:45:00,46.4,44.5,27.69,WNW,299,0.0,0.0,93,0.00,,---,0.00,VWS V14.01,2013-04-29 01:45:00,
2013-04-28 20:50:00,46.4,44.8,27.69,WNW,299,0.0,0.0,94,0.00,,---,0.00,VWS V14.01,2013-04-29 01:50:00,
2013-04-28 20:56:00,46.0,44.1,27.69,WNW,299,0.0,0.0,93,0.00,,---,0.00,VWS V14.01,2013-04-29 01:56:00,
2013-04-28 21:01:00,45.8,43.9,27.68,WNW,299,0.0,0.0,93,0.00,,---,0.00,VWS V14.01,2013-04-29 02:01:00,
2013-04-28 21:06:00,45.7,43.8,27.68,WNW,299,0.0,0.0,93,0.00,,---,0.00,VWS V14.01,2013-04-29 02:06:00,
2013-04-28 21:11:00,45.6,43.7,27.68,WNW,299,0.0,0.0,93,0.00,,---,0.00,VWS V14.01,2013-04-29 02:11:00,
2013-04-28 21:16:00,45.4,43.5,27.68,WNW,299,0.0,0.0,93,0.00,,---,0.00,VWS V14.01,2013-04-29 02:16:00,
2013-04-28 21:22:00,45.2,43.0,27.68,WNW,299,0.0,0.0,92,0.00,,---,0.00,VWS V14.01,2013-04-29 02:22:00,
2013-04-28 21:27:00,44.9,42.7,27.68,WNW,299,0.0,0.0,92,0.00,,---,0.00,VWS V14.01,2013-04-29 02:27:00,
2013-04-28 21:32:00,44.6,42.4,27.67,WNW,299,0.0,0.0,92,0.00,,---,0.00,VWS V14.01,2013-04-29 02:32:00,
2013-04-28 21:37:00,44.5,42.6,27.67,WNW,299,0.0,0.0,93,0.00,,---,0.00,VWS V14.01,2013-04-29 02:37:00,
2013-04-28 21:42:00,44.3,42.4,27.67,WNW,299,0.0,0.0,93,0.00,,---,0.00,VWS V14.01,2013-04-29 02:42:00,
2013-04-28 21:47:00,44.3,42.4,27.68,WNW,299,0.0,0.0,93,0.00,,---,0.00,VWS V14.01,2013-04-29 02:47:00,
2013-04-28 21:52:00,43.9,42.0,27.68,WNW,299,0.0,0.0,93,0.00,,---,0.00,VWS V14.01,2013-04-29 02:52:00,
2013-04-28 21:58:00,43.6,41.7,27.68,WNW,299,0.0,0.0,93,0.00,,---,0.00,VWS V14.01,2013-04-29 02:58:00,
2013-04-28 22:03:00,43.4,41.5,27.68,WNW,299,0.0,0.0,93,0.00,,---,0.00,VWS V14.01,2013-04-29 03:03:00,
2013-04-28 22:08:00,43.0,40.6,27.68,WNW,299,0.0,0.0,91,0.00,,---,0.00,VWS V14.01,2013-04-29 03:08:00,
2013-04-28 22:14:00,42.3,39.6,27.68,WNW,299,0.0,0.0,90,0.00,,---,0.00,VWS V14.01,2013-04-29 03:14:00,
2013-04-28 22:19:00,42.0,39.8,27.69,WNW,299,0.0,0.0,92,0.00,,---,0.00,VWS V14.01,2013-04-29 03:19:00,
2013-04-28 22:24:00,42.1,40.2,27.69,WNW,299,0.0,0.0,93,0.00,,---,0.00,VWS V14.01,2013-04-29 03:24:00,
2013-04-28 22:29:00,42.3,40.7,27.69,WNW,299,0.0,0.0,94,0.00,,---,0.00,VWS V14.01,2013-04-29 03:29:00,
2013-04-28 22:34:00,42.4,40.5,27.69,WNW,299,0.0,0.0,93,0.00,,---,0.00,VWS V14.01,2013-04-29 03:34:00,
2013-04-28 22:40:00,42.2,40.3,27.69,WNW,299,0.0,0.0,93,0.00,,---,0.00,VWS V14.01,2013-04-29 03:40:00,
2013-04-28 22:45:00,41.8,39.7,27.69,WNW,299,0.0,0.0,92,0.00,,---,0.00,VWS V14.01,2013-04-29 03:45:00,
2013-04-28 22:50:00,41.4,39.2,27.69,WNW,299,0.0,0.0,92,0.00,,---,0.00,VWS V14.01,2013-04-29 03:50:00,
2013-04-28 22:55:00,41.1,39.0,27.69,WNW,299,0.0,0.0,92,0.00,,---,0.00,VWS V14.01,2013-04-29 03:55:00,
2013-04-28 23:00:00,41.1,39.2,27.69,WNW,299,0.0,0.0,93,0.00,,---,0.00,VWS V14.01,2013-04-29 04:00:00,
2013-04-28 23:01:00,41.1,39.2,27.69,WNW,299,0.0,0.0,93,0.00,,---,0.00,VWS V14.01,2013-04-29 04:01:00,
2013-04-28 23:02:00,41.0,39.1,27.69,WNW,299,0.0,1.0,93,0.00,,---,0.00,VWS V14.01,2013-04-29 04:02:00,
2013-04-28 23:07:00,40.9,39.0,27.69,WNW,299,0.0,0.0,93,0.00,,---,0.00,VWS V14.01,2013-04-29 04:07:00,
2013-04-28 23:13:00,40.8,38.9,27.69,WNW,299,0.0,0.0,93,0.00,,---,0.00,VWS V14.01,2013-04-29 04:13:00,
2013-04-28 23:18:00,40.5,38.4,27.69,WNW,299,0.0,0.0,92,0.00,,---,0.00,VWS V14.01,2013-04-29 04:18:00,
2013-04-28 23:23:00,40.2,38.1,27.69,WNW,299,0.0,0.0,92,0.00,,---,0.00,VWS V14.01,2013-04-29 04:23:00,
2013-04-28 23:28:00,39.8,37.7,27.69,WNW,299,0.0,0.0,92,0.00,,---,0.00,VWS V14.01,2013-04-29 04:28:00,
2013-04-28 23:34:00,39.6,37.5,27.69,WNW,299,0.0,0.0,92,0.00,,---,0.00,VWS V14.01,2013-04-29 04:34:00,
2013-04-28 23:39:00,39.6,37.8,27.69,WNW,299,0.0,0.0,93,0.00,,---,0.00,VWS V14.01,2013-04-29 04:39:00,
2013-04-28 23:44:00,39.3,37.2,27.69,WNW,299,0.0,0.0,92,0.00,,---,0.00,VWS V14.01,2013-04-29 04:44:00,
2013-04-28 23:49:00,38.5,36.1,27.69,WNW,299,0.0,0.0,91,0.00,,---,0.00,VWS V14.01,2013-04-29 04:49:00,
2013-04-28 23:54:00,37.9,35.5,27.69,WNW,299,0.0,0.0,91,0.00,,---,0.00,VWS V14.01,2013-04-29 04:54:00,
2013-04-28 23:59:00,37.5,35.1,27.69,WNW,299,0.0,0.0,91,0.00,,---,0.00,VWS V14.01,2013-04-29 04:59:00,